Location: LDNL
(36.4545°S, 141.6685°E)
Time: 03:54:20
(UTC+11:00)

A-11 Canister half - Pass Details

Date: 10 August 2022
Orbit: 1524 x 1684 km, 47.3° (Epoch: 05 October)

Event Time Altitude Azimuth Distance (km) Brightness Sun altitude
Rises 17:49:29 0° 310° (NW) 4,702 13.2 0.4°
Reaches altitude 10° 17:52:33 10° 311° (NW) 3,710 12.5 -0.2°
Maximum altitude 18:01:53 82° 37° (NE) 1,547 9.1 -2.0°
Drops below altitude 10° 18:11:16 10° 122° (ESE) 3,720 10.4 -3.8°
Enters shadow 18:13:24 - 123° (ESE) 4,408 10.8 -4.2°
Sets 18:14:20 0° 123° (ESE) 4,715 - -4.4°
